This is the latest recevied weather packets stored in our database for station/object KC3BAN-3. If no packets are shown the sender has not sent any weather packets the latest 10 day(s).
| Time | Temp. | Humidity | Pressure | Rain* | Wind** | Luminosity | Snow |
|---|---|---|---|---|---|---|---|
| 1777655412 | 14.44° C | 74% | 1016.3 hPa | 0 mm | - | - | - |
| 1777655110 | 14.44° C | 71% | 1016.4 hPa | 0 mm | - | - | - |
| 1777654810 | 15° C | 71% | 1016.4 hPa | 0 mm | - | - | - |
| 1777654511 | 15° C | 73% | 1016.3 hPa | 0 mm | - | - | - |
| 1777654337 | 15° C | 74% | 1016.4 hPa | 0 mm | - | - | - |
| 1777653911 | 15° C | 72% | 1016.4 hPa | 0 mm | - | - | - |
| 1777653610 | 15° C | 74% | 1016.1 hPa | 0 mm | - | - | - |
| 1777653598 | 15° C | 74% | 1016.3 hPa | 0 mm | - | - | - |
| 1777653441 | 15° C | 74% | 1016.3 hPa | 0 mm | - | - | - |
| 1777653011 | 15.56° C | 72% | 1016.2 hPa | 0 mm | - | - | - |
| 1777652837 | 15° C | 74% | 1016.3 hPa | 0 mm | - | - | - |
| 1777652540 | 15° C | 74% | 1016.4 hPa | 0 mm | - | - | - |
| 1777652238 | 15° C | 74% | 1016.3 hPa | 0 mm | - | - | - |
| 1777651941 | 15° C | 73% | 1016.3 hPa | 0 mm | - | - | - |
| 1777651511 | 15° C | 75% | 1016.4 hPa | 0 mm | - | - | - |
| 1777651212 | 15° C | 73% | 1016.4 hPa | 0 mm | - | - | - |
| 1777650910 | 14.44° C | 73% | 1016.3 hPa | 0 mm | - | - | - |
| 1777650737 | 15° C | 74% | 1016.3 hPa | 0 mm | - | - | - |
| 1777650441 | 15° C | 74% | 1016.4 hPa | 0 mm | - | - | - |
| 1777650010 | 14.44° C | 73% | 1016.4 hPa | 0 mm | - | - | - |
| 1777649710 | 14.44° C | 74% | 1016.5 hPa | 0 mm | - | - | - |
| 1777649406 | 15° C | 75% | 1016.5 hPa | 0 mm | - | - | - |
| 1777649107 | 14.44° C | 74% | 1016.3 hPa | 0 mm | - | - | - |
| 1777648806 | 14.44° C | 76% | 1016.4 hPa | 0 mm | - | - | - |
| 1777648507 | 14.44° C | 75% | 1016.5 hPa | 0 mm | - | - | - |
* Rain latest hour (hover to see other rain measurements)
** Current wind speed in m/s (hover to see current wind gust speed)